FENGYUN 1C DEB, 38722

Orbit data source: Space-Track

FENGYUN 1C DEB, 38722 is space debris in SSO originally from a launch on Mon, 10 May 1999 UTC launched from the Taiyaun Space Center, China (TSC). Fengyun 1C debris stems from the Chinese weather satellite Fengyun-1C, which was intentionally destroyed by a Chinese anti-satellite missile in 2007. This event dramatically increased the amount of space debris, with thousands of trackable fragments posing hazards to satellites and human spaceflight. The Fengyun 1C debris cloud has become a focal point in discussions about space sustainability and the need for international regulations to prevent the creation of new debris.

Loading next visibility...
Identifier
38722, 1999-025ETP
Orbit
SSO
Country
Flag of CNCN / PRC
Related business
Manufacturer
Unknown
Mission
Spacecraft
Bus & Motor
Unknown
Mass
Unknown
Launch date (UTC)
1999-05-10 (26 years ago)
Launch vehicle
Unknown
Launch site
Taiyaun Space Center, China (TSC)
Object type
Payload
Rocket body
Debris
Shape & HBR
Unknown shape, 0.1 m
Radar Cross Section
Small (<0.1 m²)

Expand to show TLE details & history
Last TLE update: 1 week ago

TLE from 1 week ago
0 FENGYUN 1C DEB
1 38722U 99025ETP 25294.99347346  .00025484  00000-0  49591-2 0  9997
2 38722  99.3537  26.9759 0153429 249.3113 109.1576 14.55773176697103
Epoch: 2025-10-21T23:50Z
TLE epoch observation values (Epoch: 2025-10-21T23:50:36.106Z)
Latitude
-0.00004°
Longitude
-1.348°
Altitude
746.954 km
Speed
7.462 km/s
True Right ascension
01h 47m 54s
True Declination
0° 00' 00"
Sunlit
Object was in full shadow at epoch
Visualization orbit readout
Latitude
Unknown
Longitude
Unknown
Altitude
Unknown
Speed
Unknown
Apparent Right ascension
Unknown
Apparent Declination
Unknown
Sunlit
N/A
Visualization observer readout
Local Sidereal Time
10:24:30
Azimuth
Unknown
Elevation
Unknown
Doppler factor
Unknown
Orbital elements
Apogee altitude
812.658 km
Perigee altitude
595.337 km
Semi-major axis
7,082.134 km
Eccentricity
0.01534
Inclination
99.3537°
RAAN
26.9759°
Arg. of periapsis
249.3113°
True anomaly
110.80778°
Mean anomaly
109.1576°
Eccentric anomaly
109.98375°
Mean motion
3.64164 °/min
Orbital period
98.86 mins
BSTAR
0.0049591
Loading maneuver chart data...
Computing Atmospheric mass density...

Documentation

Showing up to 5 results
|